www.pogodaiklimat.ru

АРХИВ ПОГОДЫ в Чикаго

Время (UTC), дата Ветер
(напр.,м/с)
 
Видим.   Явления Облачность Т
(С)
Тd
(С)
f
(%)
Тe
(С)
Тes
(С)
Комфортность

P
(гПа)

Po
(гПа)
Тmin
(С)
Tmax
(С)
R
(мм)
SD
(см)
00:51 27.09 З  16 км    10/10 90 м
[средняя верхняя] 
+14.0  +7.0  63  +14  +14    1020.3  995.9  +11.7  +16.7  1.0   
01:51 27.09 З  16 км    10/10 90 м
[средняя верхняя] 
+13.9  +7.2  64  +13  +13    1020.1  995.5  +11.7  +16.7  1.0   
02:51 27.09 З   16 км  дождь, дымка  10/10 90 м
[средняя верхняя] 
+13.0  +7.0  67  +12  +12    1020.0  995.5  +11.7  +16.7  1.0   
03:51 27.09 З   16 км  слабый дождь  10/10 90 м
[средняя верхняя] 
+12.0  +7.0  71  +10  +10    1020.0  995.5  +11.7  +16.7  1.0   
04:51 27.09 З   16 км  слабый дождь, дымка  10/10 90 м
[средняя верхняя] 
+12.2  +7.2  71  +11  +11    1019.7  995.2  +11.7  +16.7  1.0   
05:51 27.09 штиль  16 км  слабый дождь  10/10 90 м
[средняя верхняя] 
+12.0  +7.0  71  +12  +12    1019.5  995.2  +8.9  +12.2  1.0   
06:51 27.09 ЮЗ  16 км    10/10 90 м
[средняя верхняя] 
+11.0  +7.0  76  +9  +9    1019.4  994.9  +8.9  +12.2  1.0   
07:51 27.09 Ю  16 км    10/10 90 м
[средняя верхняя] 
+10.0  +6.7  80  +9  +9    1019.1  994.9  +8.9  +12.2  1.0   
08:51 27.09 Ю  16 км    10/10 90 м
[средняя верхняя] 
+9.0  +7.0  87  +7  +7    1019.2  994.9  +8.9  +12.2  1.0   
09:51 27.09 Ю  16 км  слабая морось, дымка  10/10 90 м
[средняя верхняя] 
+10.0  +7.0  82  +8  +8    1019.4  994.9  +8.9  +12.2  1.0   
10:51 27.09 ЮЗ  16 км  дымка  10/10 90 м
[средняя верхняя] 
+10.0  +6.7  80  +8  +8    1019.6  995.2  +8.9  +12.2  1.0   
11:51 27.09 ЮЗ  16 км  дымка  10/10 90 м
[средняя верхняя] 
+10.0  +7.0  82  +8  +8    1019.3  994.9  +9.4  +18.9  1.0   
13:51 27.09 Ю  16 км    10/10 90 м
[средняя верхняя] 
+16.1  +6.1  51  +15  +15    1018.1  993.9  +9.4  +18.9  1.0   
14:51 27.09 ЮЗ  16 км  дымка  10/10 90 м
[средняя верхняя] 
+17.0  +4.0  42  +16  +16    1017.1  992.9  +9.4  +18.9  1.0   
15:51 27.09 Ю  6
{9} 
16 км  дымка  10/10 90 м
[средняя верхняя] 
+18.0  +6.0  45  +17  +17    1016.7  992.6  +9.4  +18.9  1.0   
16:51 27.09 ЮЗ  6
{10} 
16 км  гроза со слабым дождем, дымка  10/10 90 м
[средняя верхняя] 
+18.9  +5.0  40  +19  +19    1016.4  992.2  +9.4  +18.9  1.0   
17:51 27.09 Ю  5
{8} 
16 км  гроза с сильным дождем, дымка  10/10 90 м
[средняя верхняя] 
+20.0  +6.0  40  +20  +20    1015.3  991.2  +18.3  +21.1  1.0   
18:51 27.09 Ю  4
{9} 
16 км  гроза, дождь, дымка  10/10 90 м
[средняя верхняя] 
+21.0  +6.0  38  +22  +22  комфорт  1013.8  989.6  +18.3  +21.1  1.0   
19:51 27.09 ЮЗ  16 км  слабый дождь, дымка  10/10 90 м
[средняя верхняя] 
+20.6  +4.4  34  +21  +21  комфорт  1013.6  989.3  +18.3  +21.1  1.0   
20:51 27.09 Ю  16 км  слабый дождь  10/10 90 м
[средняя верхняя] 
+21.0  +5.0  35  +22  +22  комфорт  1013.0  988.9  +18.3  +21.1  1.0   
21:51 27.09 ЮЗ  16 км  слабый дождь  10/10 90 м
[средняя верхняя] 
+20.0  +4.0  35  +21  +21  комфорт  1013.3  989.3  +18.3  +21.1  1.0   
22:51 27.09 Ю  16 км    10/10 90 м
[средняя верхняя] 
+18.9  +3.9  37  +19  +19    1012.5  988.3  +18.3  +21.1  1.0   
23:51 27.09 Ю  16 км    10/10 90 м
[средняя верхняя] 
+18.0  +4.0  39  +18  +18    1013.1  988.9  +16.1  +18.9  1.0   
00:51 28.09 ЮЗ  14 км  слабый дождь  10/10 90 м
[средняя верхняя] 
+17.0  +5.0  45  +17  +17    1013.7  989.6  +16.1  +18.9  1.0   
01:51 28.09 ЮЗ  16 км  гроза, слабый дождь  10/10 90 м
[средняя верхняя] 
+16.7  +5.0  46  +17  +17    1014.3  990.3  +16.1  +18.9  1.0   
02:51 28.09 ЮЗ  16 км  гроза, слабый дождь  10/10 90 м
[средняя верхняя] 
+16.0  +5.0  48  +15  +15    1014.2  990.3  +16.1  +18.9  1.0   
03:51 28.09 ЮЗ  16 км  слабый дождь, дымка  10/10 90 м
[средняя верхняя] 
+16.0  +5.0  48  +15  +15    1014.2  990.3  +16.1  +18.9  1.0   
04:51 28.09 ЮЗ  16 км  дымка  10/10 90 м
[средняя верхняя] 
+16.1  +5.6  50  +15  +15    1014.2  990.3  +16.1  +18.9  1.0   
05:51 28.09 ЮЗ  16 км    10/10 90 м
[средняя верхняя] 
+15.0  +6.0  55  +14  +14    1014.6  990.6  +12.8  +16.1  1.0   
06:51 28.09 ЮЗ  16 км    10/10 90 м
[средняя верхняя] 
+14.0  +6.0  59  +13  +13    1014.8  990.6  +12.8  +16.1  1.0   
07:51 28.09 ЮЗ  16 км    10/10 90 м
[средняя верхняя] 
+13.3  +6.7  64  +12  +12    1014.7  990.6  +12.8  +16.1  1.0   
08:51 28.09 ЮЗ  16 км    10/10 90 м
[средняя верхняя] 
+13.0  +7.0  67  +12  +12    1015.5  991.2  +12.8  +16.1  1.0   
09:51 28.09 ЮЗ  16 км  слабый дождь  10/10 90 м
[средняя верхняя] 
+13.0  +7.0  67  +12  +12    1015.9  991.6  +12.8  +16.1  1.0   
10:51 28.09 ЮЗ  16 км  слабый дождь  10/10 90 м
[средняя верхняя] 
+13.3  +7.8  69  +13  +13    1016.7  992.6  +12.8  +16.1  1.0   
11:51 28.09 штиль  16 км    10/10 90 м
[средняя верхняя] 
+13.0  +8.0  72  +13  +13    1017.2  992.9  +10.0  +15.6  1.0   
12:51 28.09 ЮЗ  16 км    10/10 90 м
[средняя верхняя] 
+15.0  +9.0  67  +15  +15    1018.2  993.9  +10.0  +15.6  1.0   
13:51 28.09 СЗ  16 км    10/10 90 м
[средняя верхняя] 
+15.0  +9.4  69  +14  +14    1018.7  994.2  +10.0  +15.6  1.0   
14:51 28.09 СЗ  16 км    10/10 90 м
[средняя верхняя] 
+15.0  +9.0  67  +13  +13    1019.2  994.9  +10.0  +15.6  1.0   
15:51 28.09 З  16 км    10/10 90 м
[средняя верхняя] 
+16.0  +10.0  68  +16  +16    1019.3  994.9  +10.0  +15.6  1.0   
16:51 28.09 З  16 км    10/10 90 м
[средняя верхняя] 
+15.0  +8.9  67  +14  +14    1019.6  995.2  +10.0  +15.6  1.0   
17:51 28.09 СЗ  16 км    10/10 90 м
[средняя верхняя] 
+15.0  +8.0  63  +14  +14    1020.5  996.2  +10.0  +15.6  1.0   
18:51 28.09 З  14 км    10/10 90 м
[средняя верхняя] 
+12.0  +7.0  71  +10  +10    1021.4  996.9  +10.0  +15.6  1.0   
19:51 28.09 З  14 км    10/10 90 м
[средняя верхняя] 
+11.7  +8.3  80  +10  +10    1022.9  998.2  +10.0  +15.6  1.0   
20:51 28.09 З  16 км    10/10 90 м
[средняя верхняя] 
+11.0  +7.0  76  +9  +9    1022.7  998.2  +10.0  +15.6  1.8   
21:51 28.09 З  16 км    10/10 90 м
[средняя верхняя] 
+11.0  +7.0  76  +9  +9    1022.9  998.2  +10.0  +15.6  1.8   
22:51 28.09 З  16 км  слабый дождь  10/10 90 м
[средняя верхняя] 
+10.0  +6.7  80  +8  +8    1023.3  998.5  +10.0  +15.6  1.8   
23:51 28.09 З  16 км  слабый дождь  10/10 90 м
[средняя верхняя] 
+10.0  +7.0  82  +8  +8    1023.8  999.2  +7.8  +10.0  0.5   
00:51 29.09 З  16 км  слабый дождь  10/10 90 м
[средняя верхняя] 
+9.0  +7.0  87  +6  +6    1024.4  999.8  +7.8  +10.0  0.5   

 

Местоположение метеостанции Chicago-O`Hare International Airport: широта 41.9797 долгота -87.9044 высота над уровнем моря 203 м.

В архиве по умолчанию представлена погода в Чикаго за последние 1-2 суток. Обновление информации о фактической погоде в базе происходит ежечасно! Архивные данные за месяц целиком и за предыдущие месяцы Вы можете получить, выбрав интересующий диапазон дат из раскрывающегося списка и нажав кнопку "Ввод!".

Внимание! Архив погоды МЕТАР в базе сайта в настоящее время начинается c 1 января 2013 г. Нет смысла пытаться выбрать более раннюю дату.

Внимание! Время в таблицах - всемирное. Для получения местного времени необходимо прибавить поправку, которая в Чикаго равна -6 ч.

Ветер - указаны скорость ветра в м/с и направление, откуда дует ветер: С - северный, СВ - северо-восточный, В - восточный, ЮВ - юго-восточный, Ю - южный, ЮЗ - юго-западный, З - западный, СЗ - северо-западный.
Видимость - горизонтальная дальность видимости в метрах или километрах. При видимости от 1 до 10 км при отсутствии осадков обычно наблюдается дымка, при ухудшении видимости до 1 км и менее - туман. В сухую погоду видимость может ухудшаться дымом, пылью или мглою.
Атмосферные явления - указаны явления, наблюдавшиеся в указанный момент времени.
Облачность - указаны через наклонную черту верхняя и нижняя облачность в баллах и высота нижней границы облаков в метрах. Внимание: облачность, как и прочие метеорологические величины в США измеряются автоматическими метеостанциями. Указанные значения в баллах носят условный характер и показывают процент времени, в течение которого, в среднем, лазерный луч высотомера отражался от облаков обратно.
T - Температура воздуха - температура, измеренная на высоте 2 м над землей.
Td - Температура точки росы - температура, при понижении до которой содержащийся в воздухе водяной пар достигнет насыщения.
f - Относительная влажность воздуха - влажноcть воздуха, измеренная на высоте 2 м над землей.
Te - Эффективная температура - температура, которую ощущает одетый по сезону человек в тени. Характеристика душности погоды. При расчете учитывается влияние влажности воздуха и скорости ветра на теплоощущения человека.
Tes - Эффективная температура на солнце - температура, которую ощущает человек, с поправкой на солнечный нагрев. Характеристика знойности погоды. Зависит от высоты солнца над горизонтом, облачности и скорости ветра. Ночью, в пасмурную погоду, а также при ветре 12 м/с и более поправка равна нулю.
P - Атмосферное давление - приведенное к уровню моря атмосферное давление.
Po - Атмосферное давление - измеренное на уровне метеостанции атмосферное давление.
Tmin - Минимальная температура - минимум температуры воздуха на высоте 2 м над землей.
Tmax - Максимальная температура - максимум температуры воздуха на высоте 2 м над землей.
R - Количество осадков - Количество выпавших осадков за 3 или 6 часов, мм.
SD - Снежный покров - Высота снежного покрова, см.